Content
SEND FEEDBACK

Daily
Averages
Monthly
Summary
United States of America

NEW YORK - CENTRAL PARK, NEW YORK


Home > North America > United States > New York
Elevation: 14 feet     Latitude: 40 47N     Longitude: 073 58W

WEATHER
 
SELECT A DAY
Number of Records: 152,993;   Date Range: 11/1/95 - 12/18/14
 
SHARE

PRINT THIS DATA

[ ← Previous Day ]
WEATHER ALMANAC - FEBRUARY 12, 2014
[ Next Day → ]
[ °C ]   °F
Weather ElementAverageHighLow
Temperature20.4 °F25 °F (11:51 pm)12.9 °F (6:51 am)
Dewpoint6 °F16 °F (11:51 pm)-2 °F (10:51 am)
Humidity54.1 %69 % (11:51 pm)38 % (10:51 am)
Barometer30.46 in30.57 in (8:51 am)30.30 in (11:51 pm)
Wind Speed5.7 mph10.4 mph (6:51 am)
Wind Gust16.1 mph (6:51 am)
Weather ElementAverage
Visibility10 mi
Wind DirectionNNE (35 °)

Weather ElementTotal
Precipitation---
Heating Degree Days46.1 (Base 65)
Averaged from 26 records on February 12, 2014
WEATHER CONDITIONS BREAKOUT
WIND DIRECTION BREAKOUT
WEATHER BY HOUR - FEBRUARY 12, 2014
[ °C ]   °F
Local TimeTemperatureDewpointHumidityBarometerVisibilityWind DirectionWind SpeedGust SpeedPrecipitationEventsConditions
1:51 AM16.0 °F1.9 °F54 %30.48 in10.0 miVariable6.9 mphClear
2:51 AM16.0 °F1.9 °F54 %30.49 in10.0 miNE (40°)8.1 mphClear
3:51 AM15.1 °F1.9 °F56 %30.50 in10.0 miVariable4.6 mphClear
4:51 AM14.0 °F1.9 °F59 %30.51 in10.0 miVariable4.6 mphClear
5:51 AM14.0 °F1.9 °F59 %30.51 in10.0 miNE (40°)4.6 mphClear
6:51 AM12.9 °F-0.9 °F54 %30.52 in10.0 miNE (40°)10.4 mph16.1 mphClear
7:51 AM14.0 °F-0.9 °F52 %30.56 in10.0 miNE (50°)5.8 mphClear
8:51 AM16.0 °F0.0 °F49 %30.57 in10.0 miVariable6.9 mphClear
9:51 AM18.0 °F0.0 °F45 %30.54 in10.0 miNE (50°)6.9 mphClear
10:51 AM19.9 °F-2.0 °F38 %30.55 in10.0 miVariable4.6 mphClear
11:51 AM21.9 °F1.0 °F40 %30.55 in10.0 miNE (50°)4.6 mphClear
12:51 PM23.0 °F5.0 °F46 %30.49 in10.0 miENE (60°)6.9 mphClear
1:51 PM23.0 °F5.0 °F46 %30.49 in10.0 miSE (130°)5.8 mphClear
2:51 PM23.0 °F3.9 °F44 %30.48 in10.0 miENE (70°)9.2 mphClear
3:51 PM24.1 °F5.0 °F44 %30.46 in10.0 miENE (70°)5.8 mphClear
4:51 PM24.1 °F6.1 °F46 %30.48 in10.0 miVariable3.5 mphClear
5:51 PM21.9 °F9.0 °F58 %30.44 in10.0 miVariable5.8 mphClear
6:51 PM23.0 °F9.0 °F55 %30.43 in10.0 miVariable4.6 mphClear
7:51 PM23.0 °F12.0 °F63 %30.40 in10.0 miVariable4.6 mphClear
8:14 PM23.0 °F10.9 °F60 %30.42 in10.0 miEast (90°)4.6 mphMostly Cloudy
8:51 PM24.1 °F12.9 °F62 %30.40 in10.0 miENE (60°)5.8 mphOvercast
9:51 PM24.1 °F12.9 °F62 %30.36 in10.0 miVariable3.5 mphOvercast
10:14 PM24.1 °F14.0 °F65 %30.36 in10.0 miENE (60°)3.5 mphOvercast
10:40 PM24.1 °F12.9 °F62 %30.35 in10.0 miENE (60°)4.6 mphOvercast
10:51 PM24.1 °F14.0 °F65 %30.32 in10.0 miVariable5.8 mphOvercast
11:51 PM25.0 °F16.0 °F69 %30.30 in10.0 miNE (40°)5.8 mphOvercast
Hourly data recorded from KNYC, located miles away from New York - Central Park, New York







STORIES FROM OUR PARTNERS